23-01-2023, 00:00:09,    161,    0.0,   -2.2,   0.00,   0.00, 1030.0,   88.2, -999.0
23-01-2023, 00:00:19,    160,    0.0,   -2.2,   0.00,   0.00, 1030.0,   88.3, -999.0
23-01-2023, 00:00:29,    161,    0.0,   -2.1,   0.00,   0.00, 1030.0,   88.2, -999.0
23-01-2023, 00:00:39,    160,    0.0,   -2.2,   0.00,   0.00, 1030.0,   88.2, -999.0
23-01-2023, 00:00:49,    161,    0.0,   -2.2,   0.00,   0.00, 1030.0,   88.0, -999.0
23-01-2023, 00:00:59,    160,    0.0,   -2.2,   0.00,   0.00, 1030.0,   88.1, -999.0
23-01-2023, 00:01:11,    160,    0.0,   -2.2,   0.00,   0.00, 1030.0,   87.9, -999.0
23-01-2023, 00:01:19,    160,    0.0,   -2.2,   0.00,   0.00, 1030.0,   87.9, -999.0
23-01-2023, 00:01:29,    160,    0.0,   -2.2,   0.00,   0.00, 1030.0,   87.9, -999.0
23-01-2023, 00:01:39,    160,    0.0,   -2.2,   0.00,   0.00, 1030.1,   87.9, -999.0
23-01-2023, 00:01:49,    160,    0.0,   -2.2,   0.00,   0.00, 1030.0,   87.9, -999.0
23-01-2023, 00:01:59,    160,    0.0,   -2.1,   0.00,   0.00, 1030.0,   88.0, -999.0
23-01-2023, 00:02:09,    160,    0.0,   -2.2,   0.00,   0.00, 1030.0,   88.2, -999.0
23-01-2023, 00:02:19,    161,    0.0,   -2.1,   0.00,   0.00, 1030.1,   88.2, -999.0
23-01-2023, 00:02:29,    160,    0.0,   -2.1,   0.00,   0.00, 1030.1,   88.4, -999.0
23-01-2023, 00:02:39,    160,    0.0,   -2.2,   0.00,   0.00, 1030.1,   88.4, -999.0
23-01-2023, 00:02:49,    161,    0.0,   -2.2,   0.00,   0.00, 1030.1,   88.5, -999.0
23-01-2023, 00:02:58,    160,    0.0,   -2.2,   0.00,   0.00, 1030.1,   88.2, -999.0
23-01-2023, 00:03:09,    160,    0.0,   -2.1,   0.00,   0.00, 1030.1,   88.2, -999.0
23-01-2023, 00:03:19,    160,    0.0,   -2.1,   0.00,   0.00, 1030.1,   88.2, -999.0
23-01-2023, 00:03:29,    160,    0.0,   -2.2,   0.00,   0.00, 1030.1,   88.2, -999.0
23-01-2023, 00:03:38,    161,    0.0,   -2.1,   0.00,   0.00, 1030.2,   88.2, -999.0
23-01-2023, 00:03:49,    160,    0.0,   -2.1,   0.00,   0.00, 1030.2,   88.1, -999.0
23-01-2023, 00:03:59,    160,    0.0,   -2.2,   0.00,   0.00, 1030.2,   87.8, -999.0
23-01-2023, 00:04:08,    160,    0.0,   -2.1,   0.00,   0.00, 1030.1,   87.8, -999.0
23-01-2023, 00:04:18,    160,    0.0,   -2.1,   0.00,   0.00, 1030.2,   87.8, -999.0
23-01-2023, 00:04:29,    160,    0.0,   -2.2,   0.00,   0.00, 1030.2,   87.8, -999.0
23-01-2023, 00:04:39,    160,    0.0,   -2.1,   0.00,   0.00, 1030.2,   87.8, -999.0
23-01-2023, 00:04:48,    160,    0.0,   -2.1,   0.00,   0.00, 1030.2,   87.7, -999.0
23-01-2023, 00:04:58,    160,    0.0,   -2.1,   0.00,   0.00, 1030.2,   87.6, -999.0
23-01-2023, 00:05:09,    160,    0.0,   -2.1,   0.00,   0.00, 1030.2,   87.5, -999.0
23-01-2023, 00:05:19,    161,    0.0,   -2.2,   0.00,   0.00, 1030.2,   87.4, -999.0
23-01-2023, 00:05:28,    160,    0.0,   -2.1,   0.00,   0.00, 1030.2,   87.2, -999.0
23-01-2023, 00:05:38,    161,    0.0,   -2.2,   0.00,   0.00, 1030.2,   87.4, -999.0
23-01-2023, 00:05:49,    160,    0.0,   -2.1,   0.00,   0.00, 1030.2,   87.5, -999.0
23-01-2023, 00:05:58,    160,    0.0,   -2.1,   0.00,   0.00, 1030.2,   87.6, -999.0
23-01-2023, 00:06:08,    160,    0.0,   -2.2,   0.00,   0.00, 1030.2,   87.5, -999.0
23-01-2023, 00:06:18,    160,    0.0,   -2.1,   0.00,   0.00, 1030.2,   87.4, -999.0
23-01-2023, 00:06:28,    160,    0.0,   -2.0,   0.00,   0.00, 1030.2,   87.3, -999.0
23-01-2023, 00:06:38,    159,    0.0,   -2.2,   0.00,   0.00, 1030.2,   87.3, -999.0
23-01-2023, 00:06:48,    160,    0.0,   -2.0,   0.00,   0.00, 1030.2,   87.1, -999.0
23-01-2023, 00:06:58,    160,    0.0,   -2.1,   0.00,   0.00, 1030.2,   86.9, -999.0
23-01-2023, 00:07:08,    160,    0.0,   -1.9,   0.00,   0.00, 1030.2,   86.9, -999.0
23-01-2023, 00:07:18,    160,    0.0,   -2.1,   0.00,   0.00, 1030.2,   86.8, -999.0
23-01-2023, 00:07:28,    160,    0.0,   -2.1,   0.00,   0.00, 1030.2,   86.6, -999.0
23-01-2023, 00:07:38,    160,    0.0,   -2.1,   0.00,   0.00, 1030.2,   86.5, -999.0
23-01-2023, 00:07:48,    160,    0.0,   -2.0,   0.00,   0.00, 1030.2,   86.4, -999.0
23-01-2023, 00:07:58,    160,    0.0,   -2.1,   0.00,   0.00, 1030.2,   86.4, -999.0
23-01-2023, 00:08:08,    160,    0.0,   -2.0,   0.00,   0.00, 1030.2,   86.3, -999.0
23-01-2023, 00:08:18,    160,    0.0,   -2.1,   0.00,   0.00, 1030.2,   86.3, -999.0
23-01-2023, 00:08:28,    160,    0.0,   -2.1,   0.00,   0.00, 1030.2,   86.2, -999.0
23-01-2023, 00:08:38,    160,    0.0,   -2.0,   0.00,   0.00, 1030.2,   86.2, -999.0
23-01-2023, 00:08:48,    160,    0.0,   -2.0,   0.00,   0.00, 1030.2,   86.1, -999.0
23-01-2023, 00:08:58,    160,    0.0,   -2.0,   0.00,   0.00, 1030.2,   86.1, -999.0
23-01-2023, 00:09:08,    161,    0.0,   -2.2,   0.00,   0.00, 1030.2,   86.0, -999.0
23-01-2023, 00:09:18,    161,    0.0,   -2.1,   0.00,   0.00, 1030.2,   85.9, -999.0
23-01-2023, 00:09:28,    159,    0.0,   -2.0,   0.00,   0.00, 1030.2,   85.8, -999.0
23-01-2023, 00:09:38,    160,    0.0,   -2.0,   0.00,   0.00, 1030.2,   85.8, -999.0
23-01-2023, 00:09:48,    160,    0.0,   -2.1,   0.00,   0.00, 1030.2,   85.8, -999.0
23-01-2023, 00:09:58,    160,    0.0,   -2.0,   0.00,   0.00, 1030.2,   85.7, -999.0
23-01-2023, 00:10:08,    161,    0.0,   -2.0,   0.00,   0.00, 1030.2,   85.7, -999.0
23-01-2023, 00:10:18,    160,    0.0,   -2.1,   0.00,   0.00, 1030.2,   85.5, -999.0
23-01-2023, 00:10:28,    160,    0.0,   -2.0,   0.00,   0.00, 1030.2,   85.4, -999.0
23-01-2023, 00:10:38,    160,    0.0,   -2.1,   0.00,   0.00, 1030.2,   85.4, -999.0
23-01-2023, 00:10:48,    160,    0.0,   -2.1,   0.00,   0.00, 1030.2,   85.3, -999.0
23-01-2023, 00:10:58,    160,    0.0,   -2.2,   0.00,   0.00, 1030.2,   85.3, -999.0
23-01-2023, 00:11:08,    160,    0.0,   -2.1,   0.00,   0.00, 1030.2,   85.2, -999.0
23-01-2023, 00:11:18,    160,    0.0,   -2.1,   0.00,   0.00, 1030.2,   85.2, -999.0
23-01-2023, 00:11:28,    161,    0.0,   -2.1,   0.00,   0.00, 1030.2,   85.1, -999.0
23-01-2023, 00:11:38,    160,    0.0,   -2.1,   0.00,   0.00, 1030.2,   85.2, -999.0
23-01-2023, 00:11:48,    160,    0.0,   -2.0,   0.00,   0.00, 1030.2,   85.2, -999.0
23-01-2023, 00:11:58,    160,    0.0,   -2.1,   0.00,   0.00, 1030.2,   85.2, -999.0
23-01-2023, 00:12:08,    160,    0.0,   -2.1,   0.00,   0.00, 1030.2,   85.1, -999.0
23-01-2023, 00:12:17,    160,    0.0,   -2.1,   0.00,   0.00, 1030.2,   85.1, -999.0
23-01-2023, 00:12:28,    160,    0.0,   -2.1,   0.00,   0.00, 1030.2,   85.0, -999.0
23-01-2023, 00:12:38,    160,    0.0,   -2.0,   0.00,   0.00, 1030.2,   85.0, -999.0
23-01-2023, 00:12:48,    165,    0.0,   -2.1,   0.00,   0.00, 1030.2,   85.1, -999.0
23-01-2023, 00:12:58,    160,    0.0,   -2.0,   0.00,   0.00, 1030.2,   85.2, -999.0
23-01-2023, 00:13:08,    161,    0.0,   -2.1,   0.00,   0.00, 1030.2,   85.2, -999.0
23-01-2023, 00:13:18,    160,    0.0,   -2.0,   0.00,   0.00, 1030.2,   85.0, -999.0
23-01-2023, 00:13:27,    160,    0.0,   -2.0,   0.00,   0.00, 1030.2,   84.9, -999.0
23-01-2023, 00:13:38,    161,    0.0,   -2.1,   0.00,   0.00, 1030.2,   84.9, -999.0
23-01-2023, 00:13:48,    161,    0.0,   -2.0,   0.00,   0.00, 1030.2,   84.9, -999.0
23-01-2023, 00:13:58,    160,    0.0,   -2.0,   0.00,   0.00, 1030.2,   84.8, -999.0
23-01-2023, 00:14:07,    161,    0.0,   -2.0,   0.00,   0.00, 1030.2,   84.8, -999.0
23-01-2023, 00:14:18,    160,    0.0,   -2.0,   0.00,   0.00, 1030.2,   84.8, -999.0
23-01-2023, 00:14:28,    161,    0.0,   -1.9,   0.00,   0.00, 1030.2,   84.7, -999.0
23-01-2023, 00:14:37,    160,    0.0,   -2.0,   0.00,   0.00, 1030.2,   84.7, -999.0
23-01-2023, 00:14:47,    161,    0.0,   -2.0,   0.00,   0.00, 1030.2,   84.5, -999.0
23-01-2023, 00:14:58,    160,    0.0,   -2.0,   0.00,   0.00, 1030.2,   84.7, -999.0
23-01-2023, 00:15:08,    160,    0.0,   -2.0,   0.00,   0.00, 1030.2,   84.7, -999.0
23-01-2023, 00:15:17,    160,    0.0,   -2.0,   0.00,   0.00, 1030.2,   84.6, -999.0
23-01-2023, 00:15:27,    160,    0.0,   -2.1,   0.00,   0.00, 1030.2,   84.6, -999.0
23-01-2023, 00:15:38,    160,    0.0,   -2.0,   0.00,   0.00, 1030.2,   84.5, -999.0
23-01-2023, 00:15:47,    160,    0.0,   -2.1,   0.00,   0.00, 1030.2,   84.5, -999.0
23-01-2023, 00:15:57,    160,    0.0,   -2.0,   0.00,   0.00, 1030.2,   84.4, -999.0
23-01-2023, 00:16:07,    160,    0.0,   -2.1,   0.00,   0.00, 1030.2,   84.4, -999.0
23-01-2023, 00:16:18,    159,    0.0,   -2.1,   0.00,   0.00, 1030.2,   84.4, -999.0
23-01-2023, 00:16:27,    158,    0.0,   -2.1,   0.00,   0.00, 1030.2,   84.4, -999.0
23-01-2023, 00:16:37,    160,    0.0,   -2.1,   0.00,   0.00, 1030.2,   84.3, -999.0
23-01-2023, 00:16:47,    160,    0.0,   -2.2,   0.00,   0.00, 1030.2,   84.3, -999.0
23-01-2023, 00:16:57,    160,    0.0,   -2.1,   0.00,   0.00, 1030.2,   84.3, -999.0
23-01-2023, 00:17:07,    160,    0.0,   -2.1,   0.00,   0.00, 1030.2,   84.3, -999.0
23-01-2023, 00:17:17,    160,    0.0,   -2.2,   0.00,   0.00, 1030.2,   84.2, -999.0
23-01-2023, 00:17:27,    157,    0.0,   -2.1,   0.00,   0.00, 1030.2,   84.3, -999.0
23-01-2023, 00:17:37,    160,    0.0,   -2.2,   0.00,   0.00, 1030.2,   84.4, -999.0
23-01-2023, 00:17:47,    161,    0.0,   -2.2,   0.00,   0.00, 1030.2,   84.5, -999.0
23-01-2023, 00:17:57,    160,    0.0,   -2.1,   0.00,   0.00, 1030.2,   84.6, -999.0
23-01-2023, 00:18:07,    160,    0.0,   -2.1,   0.00,   0.00, 1030.2,   84.7, -999.0
23-01-2023, 00:18:17,    160,    0.0,   -2.1,   0.00,   0.00, 1030.2,   84.6, -999.0
23-01-2023, 00:18:27,    160,    0.0,   -2.1,   0.00,   0.00, 1030.2,   84.5, -999.0
23-01-2023, 00:18:37,    160,    0.0,   -2.1,   0.00,   0.00, 1030.2,   84.6, -999.0
23-01-2023, 00:18:47,    160,    0.0,   -2.0,   0.00,   0.00, 1030.2,   84.7, -999.0
23-01-2023, 00:18:57,    160,    0.0,   -2.0,   0.00,   0.00, 1030.2,   84.8, -999.0
23-01-2023, 00:19:07,    160,    0.0,   -2.1,   0.00,   0.00, 1030.1,   84.7, -999.0
23-01-2023, 00:19:17,    160,    0.0,   -2.0,   0.00,   0.00, 1030.1,   84.6, -999.0
23-01-2023, 00:19:27,    160,    0.0,   -2.1,   0.00,   0.00, 1030.1,   84.4, -999.0
23-01-2023, 00:19:37,    160,    0.0,   -2.0,   0.00,   0.00, 1030.1,   84.4, -999.0
23-01-2023, 00:19:47,    160,    0.0,   -2.1,   0.00,   0.00, 1030.1,   84.4, -999.0
23-01-2023, 00:19:57,    160,    0.0,   -2.1,   0.00,   0.00, 1030.1,   84.4, -999.0
23-01-2023, 00:20:07,    160,    0.0,   -2.1,   0.00,   0.00, 1030.2,   84.3, -999.0
23-01-2023, 00:20:17,    160,    0.0,   -2.1,   0.00,   0.00, 1030.1,   84.4, -999.0
23-01-2023, 00:20:27,    160,    0.0,   -2.1,   0.00,   0.00, 1030.1,   84.3, -999.0
23-01-2023, 00:20:37,    160,    0.0,   -2.1,   0.00,   0.00, 1030.1,   84.3, -999.0
23-01-2023, 00:20:47,    160,    0.0,   -2.1,   0.00,   0.00, 1030.1,   84.2, -999.0
23-01-2023, 00:20:57,    160,    0.0,   -2.1,   0.00,   0.00, 1030.1,   84.2, -999.0
23-01-2023, 00:21:07,    160,    0.0,   -2.2,   0.00,   0.00, 1030.1,   84.2, -999.0
23-01-2023, 00:21:17,    160,    0.0,   -2.2,   0.00,   0.00, 1030.1,   84.1, -999.0
23-01-2023, 00:21:27,    160,    0.0,   -2.2,   0.00,   0.00, 1030.1,   84.2, -999.0
23-01-2023, 00:21:37,    160,    0.0,   -2.1,   0.00,   0.00, 1030.1,   84.3, -999.0
23-01-2023, 00:21:47,    160,    0.0,   -2.2,   0.00,   0.00, 1030.1,   84.3, -999.0
23-01-2023, 00:21:56,    160,    0.0,   -2.2,   0.00,   0.00, 1030.1,   84.3, -999.0
23-01-2023, 00:22:07,    160,    0.0,   -2.2,   0.00,   0.00, 1030.1,   84.4, -999.0
23-01-2023, 00:22:17,    160,    0.0,   -2.2,   0.00,   0.00, 1030.1,   84.4, -999.0
23-01-2023, 00:22:27,    160,    0.0,   -2.1,   0.00,   0.00, 1030.1,   84.4, -999.0
23-01-2023, 00:22:36,    160,    0.0,   -2.1,   0.00,   0.00, 1030.1,   84.3, -999.0
23-01-2023, 00:22:47,    160,    0.0,   -2.1,   0.00,   0.00, 1030.1,   84.4, -999.0
23-01-2023, 00:22:57,    160,    0.0,   -2.1,   0.00,   0.00, 1030.1,   84.3, -999.0
23-01-2023, 00:23:06,    160,    0.0,   -2.1,   0.00,   0.00, 1030.1,   84.4, -999.0
23-01-2023, 00:23:16,    160,    0.0,   -2.2,   0.00,   0.00, 1030.1,   84.3, -999.0
23-01-2023, 00:23:27,    160,    0.0,   -2.2,   0.00,   0.00, 1030.1,   84.3, -999.0
23-01-2023, 00:23:37,    160,    0.0,   -2.2,   0.00,   0.00, 1030.1,   84.4, -999.0
23-01-2023, 00:23:46,    160,    0.0,   -2.1,   0.00,   0.00, 1030.1,   84.4, -999.0
23-01-2023, 00:23:57,    160,    0.0,   -2.2,   0.00,   0.00, 1030.1,   84.5, -999.0
23-01-2023, 00:24:07,    160,    0.0,   -2.1,   0.00,   0.00, 1030.1,   84.6, -999.0
23-01-2023, 00:24:16,    160,    0.0,   -2.1,   0.00,   0.00, 1030.1,   84.4, -999.0
23-01-2023, 00:24:26,    160,    0.0,   -2.1,   0.00,   0.00, 1030.1,   84.4, -999.0
23-01-2023, 00:24:37,    160,    0.0,   -2.2,   0.00,   0.00, 1030.1,   84.4, -999.0
23-01-2023, 00:24:47,    160,    0.0,   -2.1,   0.00,   0.00, 1030.1,   84.3, -999.0
23-01-2023, 00:24:56,    160,    0.0,   -2.1,   0.00,   0.00, 1030.1,   84.3, -999.0
23-01-2023, 00:25:06,    160,    0.0,   -2.1,   0.00,   0.00, 1030.1,   84.3, -999.0
23-01-2023, 00:25:17,    160,    0.0,   -2.1,   0.00,   0.00, 1030.1,   84.4, -999.0
23-01-2023, 00:25:26,    160,    0.0,   -2.0,   0.00,   0.00, 1030.1,   84.3, -999.0
23-01-2023, 00:25:36,    160,    0.0,   -2.2,   0.00,   0.00, 1030.1,   84.3, -999.0
23-01-2023, 00:25:46,    159,    0.0,   -2.0,   0.00,   0.00, 1030.1,   84.4, -999.0
23-01-2023, 00:25:56,    160,    0.0,   -2.0,   0.00,   0.00, 1030.1,   84.2, -999.0
23-01-2023, 00:26:06,    159,    0.0,   -2.1,   0.00,   0.00, 1030.1,   84.2, -999.0
23-01-2023, 00:26:16,    159,    0.0,   -2.2,   0.00,   0.00, 1030.1,   84.1, -999.0
23-01-2023, 00:26:26,    159,    0.0,   -2.0,   0.00,   0.00, 1030.1,   84.2, -999.0
23-01-2023, 00:26:36,    159,    0.0,   -2.0,   0.00,   0.00, 1030.1,   84.0, -999.0
23-01-2023, 00:26:46,    159,    0.0,   -2.1,   0.00,   0.00, 1030.0,   84.0, -999.0
23-01-2023, 00:26:56,    159,    0.0,   -2.1,   0.00,   0.00, 1030.0,   84.0, -999.0
23-01-2023, 00:27:06,    159,    0.0,   -2.1,   0.00,   0.00, 1030.1,   84.0, -999.0
23-01-2023, 00:27:16,    160,    0.0,   -2.1,   0.00,   0.00, 1030.0,   83.9, -999.0
23-01-2023, 00:27:26,    159,    0.0,   -2.1,   0.00,   0.00, 1030.0,   83.9, -999.0
23-01-2023, 00:27:36,    159,    0.0,   -2.0,   0.00,   0.00, 1030.0,   83.9, -999.0
23-01-2023, 00:27:46,    159,    0.0,   -2.1,   0.00,   0.00, 1030.0,   83.9, -999.0
23-01-2023, 00:27:56,    159,    0.0,   -2.0,   0.00,   0.00, 1030.0,   83.8, -999.0
23-01-2023, 00:28:06,    159,    0.0,   -2.0,   0.00,   0.00, 1030.0,   83.9, -999.0
23-01-2023, 00:28:16,    159,    0.0,   -2.0,   0.00,   0.00, 1030.0,   83.9, -999.0
23-01-2023, 00:28:26,    159,    0.0,   -2.1,   0.00,   0.00, 1030.0,   83.9, -999.0
23-01-2023, 00:28:36,    159,    0.0,   -2.1,   0.00,   0.00, 1030.0,   83.8, -999.0
23-01-2023, 00:28:46,    159,    0.0,   -2.1,   0.00,   0.00, 1030.0,   83.9, -999.0
23-01-2023, 00:28:56,    159,    0.0,   -2.1,   0.00,   0.00, 1030.0,   83.7, -999.0
23-01-2023, 00:29:06,    160,    0.0,   -2.1,   0.00,   0.00, 1030.0,   83.7, -999.0
23-01-2023, 00:29:16,    159,    0.0,   -2.1,   0.00,   0.00, 1030.0,   83.7, -999.0
23-01-2023, 00:29:26,    159,    0.0,   -2.1,   0.00,   0.00, 1030.0,   83.5, -999.0
23-01-2023, 00:29:36,    159,    0.0,   -2.2,   0.00,   0.00, 1030.0,   83.5, -999.0
23-01-2023, 00:29:46,    159,    0.0,   -2.1,   0.00,   0.00, 1030.0,   83.5, -999.0
23-01-2023, 00:29:56,    159,    0.0,   -2.2,   0.00,   0.00, 1030.0,   83.4, -999.0
23-01-2023, 00:30:06,    159,    0.0,   -2.2,   0.00,   0.00, 1030.0,   83.5, -999.0
23-01-2023, 00:30:16,    159,    0.0,   -2.1,   0.00,   0.00, 1030.0,   83.5, -999.0
23-01-2023, 00:30:26,    158,    0.0,   -2.1,   0.00,   0.00, 1029.9,   83.6, -999.0
23-01-2023, 00:30:36,    158,    0.0,   -2.2,   0.00,   0.00, 1030.0,   83.6, -999.0
23-01-2023, 00:30:46,    158,    0.2,   -2.1,   0.00,   0.00, 1030.0,   83.9, -999.0
23-01-2023, 00:30:56,    157,    0.0,   -2.2,   0.00,   0.00, 1030.0,   83.7, -999.0
23-01-2023, 00:31:06,    158,    0.0,   -2.3,   0.00,   0.00, 1030.0,   83.4, -999.0
23-01-2023, 00:31:16,    158,    0.0,   -2.1,   0.00,   0.00, 1029.9,   83.5, -999.0
23-01-2023, 00:31:26,    158,    0.0,   -2.2,   0.00,   0.00, 1030.0,   83.5, -999.0
23-01-2023, 00:31:36,    158,    0.0,   -2.2,   0.00,   0.00, 1029.9,   83.5, -999.0
23-01-2023, 00:31:45,    158,    0.0,   -2.2,   0.00,   0.00, 1029.9,   83.4, -999.0
23-01-2023, 00:31:56,    158,    0.0,   -2.2,   0.00,   0.00, 1029.9,   83.4, -999.0
23-01-2023, 00:32:06,    158,    0.0,   -2.2,   0.00,   0.00, 1029.9,   83.5, -999.0
23-01-2023, 00:32:16,    157,    0.0,   -2.2,   0.00,   0.00, 1030.0,   83.6, -999.0
23-01-2023, 00:32:25,    158,    0.0,   -2.2,   0.00,   0.00, 1029.9,   83.6, -999.0
23-01-2023, 00:32:36,    158,    0.0,   -2.2,   0.00,   0.00, 1029.9,   83.6, -999.0
23-01-2023, 00:32:46,    158,    0.4,   -2.2,   0.00,   0.00, 1030.1,   83.9, -999.0
23-01-2023, 00:32:55,    158,    0.0,   -2.2,   0.00,   0.00, 1030.0,   83.6, -999.0
23-01-2023, 00:33:05,    158,    0.0,   -2.2,   0.00,   0.00, 1029.9,   83.6, -999.0
23-01-2023, 00:33:16,    157,    0.0,   -2.2,   0.00,   0.00, 1029.9,   83.6, -999.0
23-01-2023, 00:33:26,    157,    0.0,   -2.3,   0.00,   0.00, 1029.9,   83.7, -999.0
23-01-2023, 00:33:35,    157,    0.0,   -2.3,   0.00,   0.00, 1029.9,   83.7, -999.0
23-01-2023, 00:33:45,    157,    0.0,   -2.3,   0.00,   0.00, 1029.9,   83.7, -999.0
23-01-2023, 00:33:56,    158,    0.0,   -2.2,   0.00,   0.00, 1029.9,   83.8, -999.0
23-01-2023, 00:34:05,    158,    0.0,   -2.4,   0.00,   0.00, 1029.9,   83.8, -999.0
23-01-2023, 00:34:15,    157,    0.0,   -2.3,   0.00,   0.00, 1029.9,   83.8, -999.0
23-01-2023, 00:34:25,    157,    0.0,   -2.3,   0.00,   0.00, 1029.9,   83.8, -999.0
23-01-2023, 00:34:36,    157,    0.0,   -2.3,   0.00,   0.00, 1029.9,   83.9, -999.0
23-01-2023, 00:34:45,    157,    0.0,   -2.3,   0.00,   0.00, 1029.9,   83.9, -999.0
23-01-2023, 00:34:55,    157,    0.0,   -2.2,   0.00,   0.00, 1029.9,   84.0, -999.0
23-01-2023, 00:35:05,    157,    0.0,   -2.3,   0.00,   0.00, 1029.9,   84.1, -999.0
23-01-2023, 00:35:15,    157,    0.0,   -2.2,   0.00,   0.00, 1029.9,   84.2, -999.0
23-01-2023, 00:35:25,    157,    0.0,   -2.2,   0.00,   0.00, 1029.9,   84.2, -999.0
23-01-2023, 00:35:35,    156,    0.0,   -2.2,   0.00,   0.00, 1029.9,   84.2, -999.0
23-01-2023, 00:35:45,    157,    0.0,   -2.3,   0.00,   0.00, 1029.9,   84.3, -999.0
23-01-2023, 00:35:55,    157,    0.0,   -2.2,   0.00,   0.00, 1029.9,   84.3, -999.0
23-01-2023, 00:36:05,    157,    0.0,   -2.2,   0.00,   0.00, 1029.9,   84.3, -999.0
23-01-2023, 00:36:15,    156,    0.0,   -2.2,   0.00,   0.00, 1029.9,   84.4, -999.0
23-01-2023, 00:36:25,    157,    0.0,   -2.2,   0.00,   0.00, 1029.9,   84.5, -999.0
23-01-2023, 00:36:35,    157,    0.0,   -2.1,   0.00,   0.00, 1029.8,   84.4, -999.0
23-01-2023, 00:36:45,    157,    0.0,   -2.2,   0.00,   0.00, 1029.9,   84.3, -999.0
23-01-2023, 00:36:55,    156,    0.0,   -2.2,   0.00,   0.00, 1029.9,   84.3, -999.0
23-01-2023, 00:37:05,    156,    0.0,   -2.2,   0.00,   0.00, 1029.9,   84.4, -999.0
23-01-2023, 00:37:15,    156,    0.0,   -2.2,   0.00,   0.00, 1029.8,   84.3, -999.0
23-01-2023, 00:37:25,    156,    0.0,   -2.2,   0.00,   0.00, 1029.9,   84.4, -999.0
23-01-2023, 00:37:35,    157,    0.0,   -2.2,   0.00,   0.00, 1029.8,   84.4, -999.0
23-01-2023, 00:37:45,    156,    0.0,   -2.2,   0.00,   0.00, 1029.9,   84.4, -999.0
23-01-2023, 00:37:55,    156,    0.0,   -2.2,   0.00,   0.00, 1029.9,   84.4, -999.0
23-01-2023, 00:38:05,    156,    0.0,   -2.2,   0.00,   0.00, 1029.9,   84.3, -999.0
23-01-2023, 00:38:15,    156,    0.0,   -2.2,   0.00,   0.00, 1029.9,   84.2, -999.0
23-01-2023, 00:38:25,    156,    0.0,   -2.2,   0.00,   0.00, 1029.9,   84.2, -999.0
23-01-2023, 00:38:35,    156,    0.0,   -2.3,   0.00,   0.00, 1029.9,   84.2, -999.0
23-01-2023, 00:38:45,    156,    0.0,   -2.3,   0.00,   0.00, 1029.9,   84.2, -999.0
23-01-2023, 00:38:55,    159,    0.0,   -2.3,   0.00,   0.00, 1029.9,   84.1, -999.0
23-01-2023, 00:39:05,    160,    0.0,   -2.2,   0.00,   0.00, 1029.9,   84.1, -999.0
23-01-2023, 00:39:15,    161,    0.0,   -2.2,   0.00,   0.00, 1029.9,   84.3, -999.0
23-01-2023, 00:39:25,    161,    0.0,   -2.2,   0.00,   0.00, 1029.9,   84.1, -999.0
23-01-2023, 00:39:35,    161,    0.0,   -2.3,   0.00,   0.00, 1029.9,   84.2, -999.0
23-01-2023, 00:39:45,    161,    0.0,   -2.2,   0.00,   0.00, 1029.9,   84.2, -999.0
23-01-2023, 00:39:55,    161,    0.0,   -2.3,   0.00,   0.00, 1029.9,   84.3, -999.0
23-01-2023, 00:40:05,    160,    0.0,   -2.3,   0.00,   0.00, 1029.9,   84.3, -999.0
23-01-2023, 00:40:15,    161,    0.0,   -2.3,   0.00,   0.00, 1029.9,   84.4, -999.0
23-01-2023, 00:40:25,    161,    0.0,   -2.3,   0.00,   0.00, 1029.9,   84.3, -999.0
23-01-2023, 00:40:35,    161,    0.0,   -2.3,   0.00,   0.00, 1029.8,   84.4, -999.0
23-01-2023, 00:40:45,    161,    0.0,   -2.3,   0.00,   0.00, 1029.9,   84.5, -999.0
23-01-2023, 00:40:55,    161,    0.0,   -2.3,   0.00,   0.00, 1029.9,   84.4, -999.0
23-01-2023, 00:41:04,    161,    0.0,   -2.3,   0.00,   0.00, 1029.9,   84.5, -999.0
23-01-2023, 00:41:15,    161,    0.0,   -2.4,   0.00,   0.00, 1029.9,   84.5, -999.0
23-01-2023, 00:41:25,    161,    0.0,   -2.5,   0.00,   0.00, 1029.9,   84.6, -999.0
23-01-2023, 00:41:34,    161,    0.0,   -2.3,   0.00,   0.00, 1029.9,   84.6, -999.0
23-01-2023, 00:41:45,    161,    0.0,   -2.3,   0.00,   0.00, 1029.9,   84.6, -999.0
23-01-2023, 00:41:55,    161,    0.0,   -2.4,   0.00,   0.00, 1029.9,   84.6, -999.0
23-01-2023, 00:42:05,    160,    0.0,   -2.3,   0.00,   0.00, 1029.9,   84.7, -999.0
23-01-2023, 00:42:14,    161,    0.0,   -2.3,   0.00,   0.00, 1029.9,   84.7, -999.0
23-01-2023, 00:42:25,    161,    0.0,   -2.4,   0.00,   0.00, 1029.9,   84.8, -999.0
23-01-2023, 00:42:35,    160,    0.0,   -2.3,   0.00,   0.00, 1029.9,   84.8, -999.0
23-01-2023, 00:42:45,    160,    0.0,   -2.3,   0.00,   0.00, 1029.9,   84.8, -999.0
23-01-2023, 00:42:54,    160,    0.0,   -2.2,   0.00,   0.00, 1029.9,   84.9, -999.0
23-01-2023, 00:43:05,    158,    0.3,   -2.2,   0.00,   0.00, 1030.0,   85.1, -999.0
23-01-2023, 00:43:15,    163,    0.0,   -2.2,   0.00,   0.00, 1029.9,   84.9, -999.0
23-01-2023, 00:43:24,    163,    0.0,   -2.2,   0.00,   0.00, 1029.9,   84.8, -999.0
23-01-2023, 00:43:34,    163,    0.0,   -2.2,   0.00,   0.00, 1029.9,   84.7, -999.0
23-01-2023, 00:43:45,    162,    0.0,   -2.3,   0.00,   0.00, 1029.9,   84.5, -999.0
23-01-2023, 00:43:54,    163,    0.0,   -2.3,   0.00,   0.00, 1029.9,   84.6, -999.0
23-01-2023, 00:44:04,    162,    0.0,   -2.4,   0.00,   0.00, 1029.9,   84.6, -999.0
23-01-2023, 00:44:14,    162,    0.0,   -2.3,   0.00,   0.00, 1029.9,   84.6, -999.0
23-01-2023, 00:44:25,    162,    0.0,   -2.3,   0.00,   0.00, 1029.9,   84.5, -999.0
23-01-2023, 00:44:34,    162,    0.0,   -2.3,   0.00,   0.00, 1029.9,   84.5, -999.0
23-01-2023, 00:44:44,    163,    0.0,   -2.5,   0.00,   0.00, 1029.9,   84.5, -999.0
23-01-2023, 00:44:54,    162,    0.0,   -2.3,   0.00,   0.00, 1029.9,   84.4, -999.0
23-01-2023, 00:45:05,    162,    0.0,   -2.3,   0.00,   0.00, 1029.9,   84.5, -999.0
23-01-2023, 00:45:14,    163,    0.0,   -2.3,   0.00,   0.00, 1029.9,   84.6, -999.0
23-01-2023, 00:45:24,    162,    0.4,   -2.2,   0.00,   0.00, 1030.0,   84.9, -999.0
23-01-2023, 00:45:34,    162,    0.0,   -2.3,   0.00,   0.00, 1029.9,   84.6, -999.0
23-01-2023, 00:45:44,    162,    0.0,   -2.3,   0.00,   0.00, 1029.8,   84.7, -999.0
23-01-2023, 00:45:54,    162,    0.0,   -2.3,   0.00,   0.00, 1029.9,   84.6, -999.0
23-01-2023, 00:46:04,    162,    0.0,   -2.3,   0.00,   0.00, 1029.9,   84.6, -999.0
23-01-2023, 00:46:14,    162,    0.0,   -2.4,   0.00,   0.00, 1029.9,   84.6, -999.0
23-01-2023, 00:46:24,    162,    0.0,   -2.4,   0.00,   0.00, 1029.8,   84.6, -999.0
23-01-2023, 00:46:34,    162,    0.0,   -2.4,   0.00,   0.00, 1029.9,   84.6, -999.0
23-01-2023, 00:46:44,    162,    0.0,   -2.4,   0.00,   0.00, 1029.8,   84.6, -999.0
23-01-2023, 00:46:54,    162,    0.0,   -2.3,   0.00,   0.00, 1029.8,   84.8, -999.0